Location: Unspecified
(0.0000°N, 0.0000°E)
Time: 06:33:53
(UTC+00:00)

Hubble Space Telescope - Pass Details

Date: 20 June 2019
Orbit: 536 x 540 km, 28.5° (Epoch: 14 September)

Event Time Altitude Azimuth Distance (km) Brightness Sun altitude
Rises 18:41:46 0° 232° (SW) 2,681 4.7 -9.2°
Reaches altitude 10° 18:44:04 10° 227° (SW) 1,788 3.7 -9.7°
Maximum altitude 18:48:07 52° 150° (SSE) 670 0.9 -10.7°
Drops below altitude 10° 18:52:08 10° 73° (ENE) 1,783 3.0 -11.6°
Enters shadow 18:52:17 - 73° (ENE) 1,836 3.0 -11.6°
